Orbital Elements at Epoch 2459000.5 (2020-May-31.0) TDB
Reference: JPL 23 (heliocentric ecliptic J2000)
Element | Value | Uncertainty (1-sigma) | Units |
e | .01972737836383878 | 3.975e-08 | |
a | 2.945275234300874 | 2.1536e-08 | au |
q | 2.887172675368177 | 1.2218e-07 | au |
i | 1.983023693339208 | 4.941e-06 | deg |
node | 190.4911130719981 | 0.0001365 | deg |
peri | 80.37770834238745 | 0.00020101 | deg |
M | 256.3957148909118 | 0.00014944 | deg |
tp | 2459531.827718386520 (2021-Nov-13.32771839) | 0.00076697 | TDB |
period | 1846.236170808425 5.05 | 2.025e-05 5.544e-08 | d yr |
n | .1949913048460989 | 2.1387e-09 | deg/d |
Q | 3.003377793233572 | 2.1961e-08 | au |
|
| | Orbit Determination Parameters
Additional Information
|